This is the latest recevied weather packets stored in our database for station/object IZ6UQU-13. If no packets are shown the sender has not sent any weather packets the latest 10 day(s).
| Time | Temp. | Humidity | Pressure | Rain* | Wind** | Luminosity | Snow |
|---|---|---|---|---|---|---|---|
| 1777289111 | 22.78° C | 40% | 958.8 hPa | 0 mm | - | - | - |
| 1777288811 | 22.78° C | 39% | 958.8 hPa | 0 mm | - | - | - |
| 1777288511 | 22.78° C | 39% | 958.9 hPa | 0 mm | - | - | - |
| 1777288211 | 22.78° C | 38% | 958.9 hPa | 0 mm | - | - | - |
| 1777287911 | 22.22° C | 36% | 958.9 hPa | 0 mm | - | - | - |
| 1777287611 | 22.22° C | 34% | 959 hPa | 0 mm | - | - | - |
| 1777287311 | 22.78° C | 35% | 959 hPa | 0 mm | - | - | - |
| 1777287011 | 22.22° C | 38% | 959.1 hPa | 0 mm | - | - | - |
| 1777286711 | 22.22° C | 38% | 959.1 hPa | 0 mm | - | - | - |
| 1777286411 | 22.22° C | 39% | 959.1 hPa | 0 mm | - | - | - |
| 1777286111 | 22.22° C | 40% | 959.1 hPa | 0 mm | - | - | - |
| 1777285811 | 22.22° C | 41% | 959.2 hPa | 0 mm | - | - | - |
| 1777285510 | 21.67° C | 43% | 959.1 hPa | 0 mm | - | - | - |
| 1777285211 | 21.67° C | 43% | 959.1 hPa | 0 mm | - | - | - |
| 1777284910 | 21.67° C | 44% | 959.1 hPa | 0 mm | - | - | - |
| 1777284611 | 21.11° C | 46% | 959.1 hPa | 0 mm | - | - | - |
| 1777284310 | 20.56° C | 46% | 959.2 hPa | 0 mm | - | - | - |
| 1777284011 | 20.56° C | 47% | 959.3 hPa | 0 mm | - | - | - |
| 1777283710 | 21.11° C | 46% | 959.3 hPa | 0 mm | - | - | - |
| 1777283411 | 21.11° C | 46% | 959.4 hPa | 0 mm | - | - | - |
| 1777282811 | 21.11° C | 48% | 959.6 hPa | 0 mm | - | - | - |
| 1777282510 | 20° C | 50% | 959.6 hPa | 0 mm | - | - | - |
| 1777282211 | 20° C | 50% | 959.6 hPa | 0 mm | - | - | - |
| 1777281910 | 20.56° C | 48% | 959.8 hPa | 0 mm | - | - | - |
| 1777281611 | 20° C | 49% | 959.7 hPa | 0 mm | - | - | - |
* Rain latest hour (hover to see other rain measurements)
** Current wind speed in m/s (hover to see current wind gust speed)